Погода в Белуховке

Украина / Полтавская область     49°35′04″N   35°17′12″E
темп.,
°C
ветер,
м/с
пор.,
м/с
влажн.,
%
обл.,
%
осадки,
мм/ч
давл.,
гПа
погр.,
м
9 декабря, чт
чт923:00+5в379471 0.0 1009144
02:00+5в379373 0.0 1009141
05:00+4в3594100 0.0 1010113
08:00+4в369686 0.0 1012122
11:00+6вюв2495100 0.1 1013156
14:00+6ююв2398100 0.1 101482
17:00+7ююв2496100 0.1 1015124
20:00+6ююв3596100 0.1 1017154
10 декабря, пт
пт1023:00+6юв3696100 0.1 1018192
02:00+6юв3695100 0.1 1020238
05:00+6ююв4796100 0.2 1020275
08:00+6ююв4793100 0.3 1022300
11:00+7ююв4782100 0.0 1022414
14:00+8юв467830 0.0 1022546
17:00+6вюв510936 0.0 1023237
20:00+5вюв61294100 0.0 1023316
11 декабря, сб
сб1123:00+6вюв61390100 0.0 1023436
02:00+4вюв61493100 0.0 1023372
05:00+4вюв71590100 0.0 1022409
08:00+3вюв81683100 0.0 1023476
11:00+5вюв8167029 0.0 1023585
14:00+6юв7136525 0.0 1023666
17:00+4вюв71374100 0.0 1024403
20:00+3вюв5128058 0.0 1026350
12 декабря, вс
вс1223:00+2вюв5118676 0.0 1026268
02:00+1вюв5118894 0.0 1027277
05:00+1вюв51283100 0.0 1027306
08:000в61480100 0.0 1027345
11:00+3вюв71565100 0.0 1026460
14:00+4вюв81559100 0.0 1024537
17:00+3вюв81761100 0.0 1025510
20:00+3вюв81756100 0.0 1024541
13 декабря, пн
пн1323:00+2вюв81654100 0.0 1024520
02:00+2в81655100 0.0 1022529
05:00+2вюв81657100 0.0 1022544
08:00+1вюв71558100 0.0 1022575
11:00+3вюв71355100 0.0 1021600
14:00+4вюв61053100 0.0 1021619
17:00+3вюв61161100 0.0 1021429
20:00+2вюв51066100 0.0 1022391